Погода в Кутеевке

Россия / Пензенская область     53°05′40″N   43°37′44″E
темп.,
°C
ветер,
м/с
пор.,
м/с
влажн.,
%
обл.,
%
осадки,
мм/ч
давл.,
гПа
погр.,
м
28 июля, ср
ср2800:00+18сз22692 0.0 101811
03:00+17зсз22733 0.0 101812
06:00+19ссз116958 0.0 101733
09:00+23св22521 0.0 1017436
12:00+27сз23385 0.0 10162074
15:00+28ссз233599 0.0 10152385
18:00+26в2247100 0.0 101438
21:00+21ссв0055100 0.1 101412
29 июля, чт
чт2900:00+18св478399 0.4 1014125
03:00+18в3676100 0.5 101298
06:00+19ю51174100 0.1 1011297
09:00+19ю5118381 2.2 1010404
12:00+25ююз8105452 0.5 10081569
15:00+28зюз694589 0.5 10061658
18:00+27з510522 0.0 1006739
21:00+21сз23695 0.0 100725
30 июля, пт
пт3000:00+19сз227558 0.0 100823
03:00+18з117687 0.0 100811
06:00+21ююз35706 0.0 1008115
09:00+25юз455658 0.0 1008548
12:00+28юз564773 0.0 10081032
15:00+29ююз464148 0.0 10061364
18:00+27юз6114619 0.0 1006486
21:00+19вюв1191100 3.0 100735
31 июля, сб
сб3100:00+19ю4690100 1.9 1006124
03:00+18з2393100 2.0 100658
06:00+19сз3594100 0.0 1007194
09:00+23зсз457521 0.0 1008840
12:00+27сз564621 0.0 10081978
15:00+28зсз56375 0.0 10082356
18:00+27зсз24475 0.0 1009179
21:00+22ююз335399 0.0 101021
1 августа, вс
вс100:00+21зюз34565 0.0 101066
03:00+19з22600 0.0 101111
06:00+20зюз23625 0.0 101255
09:00+26зюз35460 0.0 1012483
12:00+30юз45350 0.0 10112170
15:00+31юз46300 0.0 10102554
18:00+29ююз23420 0.0 100957
21:00+24ююв33469 0.0 101016